Weather observations for the past three days for
Sand Point
Metric (Imperial)
Date Time (akdt) Wind (kph) Vis. (km) Weather Sky Cond. Temperature (ºC) Relative Humidity Wind Chill (°C) Heat Index (°C) Pressure Precipitation (cm)
Air Dwpt 6 hour altimeter (cm) sea level (mb) 1 hr 3 hr 6 hr
Max. Min.
21 09:56 NW 17 16.09 Mostly Cloudy FEW018 SCT027 BKN045 9.4 6.1 9.4 7.8 80% 7 76.25 1016.7
21 08:56 NW 13 16.09 Mostly Cloudy FEW017 SCT028 BKN050 8.9 6.1 83% 7 76.23 1016.4
21 07:56 NW 22 16.09 Mostly Cloudy FEW018 SCT032 BKN055 8.3 6.1 86% 5 76.2 1016.1
21 06:56 NW 19 16.09 Mostly Cloudy FEW020 SCT033 BKN070 7.8 5.6 86% 5 76.17 1015.7
21 05:56 NW 19 16.09 Overcast BKN090 OVC120 8.3 5.6 83% 6 76.15 1015.4
21 04:56 N 17 16.09 A Few Clouds FEW025 8.3 5.6 83% 6 76.15 1015.3
21 03:56 NW 17 16.09 Mostly Cloudy BKN029 8.3 6.1 9.4 7.8 86% 6 76.15 1015.3
21 02:56 Vrbl 6 16.09 Fair CLR 8.9 6.7 86% 76.12 1014.9
21 01:56 N 11 16.09 Overcast FEW060 OVC085 9.4 7.2 86% 8 76.07 1014.5
20 22:56 SE 11 16.09 Overcast OVC011 8.3 8.3 100% 7 76.05 1013.9
20 21:56 S 13 14.48 Overcast OVC013 7.8 7.2 12.2 7.8 96% 6 76.02 1013.8
20 19:56 S 11 16.09 Overcast OVC019 9.4 6.7 83% 8 75.97 1013.1
20 18:56 NE 6 16.09 Overcast SCT020 BKN026 OVC031 10.6 6.7 77% 75.95 1012.7
20 17:56 Vrbl 6 16.09 Mostly Cloudy FEW020 SCT026 BKN033 11.1 6.1 72% 75.95 1012.6
20 16:56 Vrbl 9 16.09 Mostly Cloudy FEW020 SCT026 BKN038 12.2 7.2 72% 75.92 0.0
20 14:56 E 17 16.09 Mostly Cloudy FEW018 SCT023 BKN029 11.7 7.2 74% 75.92 1012.3
20 12:56 NE 13 16.09 Overcast SCT012 BKN019 OVC027 8.9 7.2 89% 7 75.92 1012.3
20 11:56 Vrbl 9 16.09 Overcast SCT010 BKN016 OVC025 8.9 8.9 100% 8 75.9 1012.2
20 10:56 Vrbl 11 4.83 Light Drizzle Fog/Mist SCT006 BKN011 OVC018 8 0 0% 6 75.9 1012.2
20 09:56 NE 13 8.05 Light Drizzle Fog/Mist SCT006 BKN011 OVC020 8.3 8.3 100% 6 75.9 1012.1
20 08:56 NE 11 16.09 Light Drizzle SCT008 BKN014 OVC025 8.3 8.3 100% 7 75.9 1012.1
20 07:56 NE 11 11.27 Light Rain SCT005 BKN010 OVC018 7.8 7.8 100% 6 75.92 1012.3
20 06:56 NE 15 14.48 Light Drizzle SCT008 BKN012 OVC020 7.8 7.8 100% 6 75.9 1012.0
20 05:56 Vrbl 11 16.09 Light Rain OVC008 8.3 8.3 100% 7 75.9 1012.0
20 04:56 NE 9 16.09 Overcast OVC008 0 0 0% 75.92 0.0
20 03:56 NE 11 16.09 Light Rain BKN008 OVC012 8.3 8.3 8.3 8.3 100% 7 75.95 1012.5
20 02:56 Vrbl 9 12.87 Light Rain OVC006 8.3 8.3 100% 7 75.97 1013.0
20 01:56 NE 9 8.05 Light Rain Fog/Mist OVC006 8.3 8.3 100% 7 75.97 1013.0
20 00:56 Vrbl 9 14.48 Light Rain OVC008 8.3 8.3 100% 7 75.97 1013.1
19 23:56 NE 9 8.05 Fog/Mist OVC008 8.3 7.8 97% 7 76 1013.4
19 21:56 N 6 8.05 Light Rain Fog/Mist OVC007 8.3 7.2 9.4 8.3 93% 76 0.0
19 20:56 Vrbl 7 16.09 Overcast OVC011 8.9 6.7 86% 8 76 0.0
19 19:56 Vrbl 6 16.09 Overcast OVC011 9.4 6.7 83% 76 0.0
19 18:56 Vrbl 6 16.09 Overcast BKN011 BKN021 OVC035 9.4 6.7 83% 76 0.0
19 17:56 Vrbl 6 16.09 Overcast BKN011 BKN025 OVC040 9.4 6.7 83% 76 0.0
19 16:56 NE 7 16.09 Overcast FEW009 BKN015 OVC032 9.4 6.7 83% 9 76 0.0
19 14:56 Vrbl 6 16.09 Overcast SCT009 BKN014 OVC022 8.9 6.7 86% 76.02 0.0
19 13:56 Vrbl 6 16.09 Overcast BKN014 BKN023 OVC035 9.4 7.8 90% 76 0.0
19 12:56 NE 9 16.09 Overcast FEW005 BKN011 OVC020 8.3 8.3 100% 7 75.97 0.0
19 11:56 Vrbl 6 16.09 Light Rain FEW007 BKN011 OVC020 8.3 8.3 100% 75.97 0.0
19 10:56 Vrbl 6 16.09 Light Rain FEW006 BKN011 OVC017 7.8 7 95% 75.95 1012.8
19 09:56 Calm 16.09 Light Rain FEW005 BKN010 OVC017 7.8 7 7.8 7.2 95% 75.92 1012.5
19 08:56 Calm 9.66 Light Rain Fog/Mist FEW004 BKN009 OVC012 7.2 7 99% 75.92 1012.3
19 07:56 S 6 6.44 Light Rain Fog/Mist OVC005 7.2 7 99% 75.9 1012.2
19 06:56 Calm 2.41 Light Rain Fog/Mist OVC003 7 0 0% 75.9 1012.0
19 05:56 SE 9 4.83 Light Rain OVC003 7 0 0% 5 75.87 1011.8
19 04:56 Calm 4.83 Light Rain OVC003 7 0 0% 75.87 1011.7
19 03:56 SE 7 8.05 Light Rain OVC003 7 0 7.8 7.2 0% 6 75.87 1011.7
19 02:56 SE 9 1.21 Light Rain OVC003 7 0 0% 5 75.87 1011.5
19 01:56 S 7 16.09 Overcast OVC003 7 0 0% 6 75.87 1011.6
19 00:56 S 15 2.01 Light Rain OVC003 8 0 0% 6 75.87 1011.7
18 23:56 SE 9 3.22 Fog/Mist OVC003 8 0 0% 7 75.84 1011.4
18 22:56 SE 11 16.09 Overcast OVC008 8 0 0% 6 75.82 1011.0
18 21:56 SE 9 2.82 Fog/Mist OVC004 8 0 9.4 7.8 0% 7 75.79 1010.7
18 20:56 S 9 2.82 Fog/Mist OVC004 8 0 0% 7 75.77 1010.4
18 19:56 S 11 2.41 Fog/Mist OVC012 8.3 8.3 100% 7 75.74 1010.1
18 18:56 S 11 2.41 Light Drizzle Fog/Mist SCT012 BKN024 OVC048 8.3 8.3 100% 7 75.74 1010.0
18 17:56 S 13 6.44 Light Drizzle Fog/Mist SCT012 BKN024 OVC048 8.9 8.3 96% 7 75.74 1010.1
18 16:56 S 11 6.44 Light Drizzle Fog/Mist SCT012 BKN024 OVC048 9.4 8.3 93% 8 75.72 1009.8
18 13:56 NE 7 16.09 Light Rain SCT007 BKN013 OVC019 8.9 7.8 93% 8 75.69 1009.4
18 12:56 Vrbl 7 14.48 Light Drizzle SCT010 BKN015 OVC019 8.9 7.8 93% 8 75.69 1009.2
18 11:56 NE 11 16.09 Light Drizzle SCT010 BKN015 OVC019 8.9 8.3 96% 7 75.67 1009.1
18 10:56 NE 7 12.87 Light Rain SCT008 BKN014 OVC018 8.9 8.3 96% 8 75.67 1009.1
Date Time (akdt) Wind (kph) Vis. (km) Weather Sky Cond. Air Dwpt Max. Min. Relative Humidity Wind Chill (°C) Heat Index (°C) altimeter (cm) sea level (mb) 1 hr 3 hr 6 hr
6 hour
Temperature (ºC) Pressure Precipitation (cm)